This is the latest recevied weather packets stored in our database for station/object SP5MRF. If no packets are shown the sender has not sent any weather packets the latest 10 day(s).
| Time | Temp. | Humidity | Pressure | Rain* | Wind** | Luminosity | Snow |
|---|---|---|---|---|---|---|---|
| 1787844540 | 23.89° C | 42% | 1018.3 hPa | 0 mm | - | - | - |
| 1787843100 | 24.44° C | 44% | 1018.2 hPa | 0 mm | - | - | - |
| 1787842620 | 24.44° C | 43% | 1018.3 hPa | 0 mm | - | - | - |
| 1787842146 | 24.44° C | 43% | 1018.4 hPa | 0 mm | - | - | - |
| 1787841663 | 24.44° C | 43% | 1018.3 hPa | 0 mm | - | - | - |
| 1787841180 | 24.44° C | 43% | 1018.1 hPa | 0 mm | - | - | - |
| 1787840221 | 25° C | 42% | 1018.2 hPa | 0 mm | - | - | - |
| 1787839740 | 25° C | 43% | 1018.3 hPa | 0 mm | - | - | - |
| 1787839260 | 25.56° C | 43% | 1018.1 hPa | 0 mm | - | - | - |
| 1787838780 | 25.56° C | 43% | 1018.3 hPa | 0 mm | - | - | - |
| 1787838307 | 25.56° C | 42% | 1018.3 hPa | 0 mm | - | - | - |
| 1787836860 | 26.67° C | 41% | 1018.3 hPa | 0 mm | - | - | - |
| 1787836380 | 26.67° C | 42% | 1018.4 hPa | 0 mm | - | - | - |
| 1787835900 | 26.67° C | 42% | 1018.7 hPa | 0 mm | - | - | - |
| 1787835562 | 25.56° C | 44% | 1019.9 hPa | 0 mm | - | - | - |
| 1787835420 | 26.67° C | 41% | 1018.9 hPa | 0 mm | - | - | - |
| 1787834940 | 26.67° C | 40% | 1018.8 hPa | 0 mm | - | - | - |
| 1787834461 | 26.67° C | 42% | 1018.9 hPa | 0 mm | - | - | - |
| 1787833980 | 26.11° C | 42% | 1018.9 hPa | 0 mm | - | - | - |
| 1787833500 | 26.11° C | 42% | 1018.8 hPa | 0 mm | - | - | - |
| 1787833020 | 25.56° C | 44% | 1019 hPa | 0 mm | - | - | - |
| 1787832540 | 25.56° C | 43% | 1019.2 hPa | 0 mm | - | - | - |
| 1787832064 | 25.56° C | 43% | 1019.2 hPa | 0 mm | - | - | - |
| 1787831582 | 25.56° C | 44% | 1019.4 hPa | 0 mm | - | - | - |
| 1787831100 | 25.56° C | 43% | 1019.2 hPa | 0 mm | - | - | - |
* Rain latest hour (hover to see other rain measurements)
** Current wind speed in m/s (hover to see current wind gust speed)